Time,TemperatureF,DewpointF,PressureIn,WindDirection,WindDirectionDegrees,WindSpeedMPH,WindSpeedGustMPH,Humidity,HourlyPrecipIn,Conditions,Clouds,dailyrainin,SolarRadiationWatts/m^2,SoftwareType,DateUTC
2017-12-11 00:00:00,36.3,23.0,30.02,WSW,237,11.0,12.0,58,0.00,,,0.16,0.0,meteobridge,2017-12-11 05:00:00,
2017-12-11 00:05:00,36.3,23.4,30.02,WSW,245,6.0,11.0,59,0.00,,,0.00,0.0,meteobridge,2017-12-11 05:05:00,
2017-12-11 00:10:00,36.1,23.2,30.02,SW,219,10.1,14.0,59,0.00,,,0.00,0.0,meteobridge,2017-12-11 05:10:00,
2017-12-11 00:15:00,36.1,23.2,30.01,SW,222,8.9,10.0,59,0.00,,,0.00,0.0,meteobridge,2017-12-11 05:15:00,
2017-12-11 00:20:00,36.1,23.5,30.01,SW,234,10.1,10.1,60,0.00,,,0.00,0.0,meteobridge,2017-12-11 05:20:00,
2017-12-11 00:25:00,36.1,23.5,30.01,WSW,255,11.0,13.0,60,0.00,,,0.00,0.0,meteobridge,2017-12-11 05:25:00,
2017-12-11 00:30:00,36.1,23.2,30.01,WSW,249,8.9,13.0,59,0.00,,,0.00,0.0,meteobridge,2017-12-11 05:30:00,
2017-12-11 00:35:00,36.1,23.5,30.01,West,263,6.9,11.0,60,0.00,,,0.00,0.0,meteobridge,2017-12-11 05:35:00,
2017-12-11 00:40:00,36.1,23.5,30.01,WSW,248,8.9,12.0,60,0.00,,,0.00,0.0,meteobridge,2017-12-11 05:40:00,
2017-12-11 00:45:00,36.1,23.5,30.01,SSW,196,4.0,10.0,60,0.00,,,0.00,0.0,meteobridge,2017-12-11 05:45:00,
2017-12-11 00:50:00,36.3,23.7,30.01,WSW,239,6.9,9.0,60,0.00,,,0.00,0.0,meteobridge,2017-12-11 05:50:00,
2017-12-11 00:55:00,36.3,23.4,30.01,West,268,6.9,8.0,59,0.00,,,0.00,0.0,meteobridge,2017-12-11 05:55:00,
2017-12-11 01:00:00,36.3,23.4,30.01,WSW,248,8.9,11.0,59,0.00,,,0.00,0.0,meteobridge,2017-12-11 06:00:00,
2017-12-11 01:05:00,36.5,23.9,30.01,WSW,248,4.0,8.0,60,0.00,,,0.00,0.0,meteobridge,2017-12-11 06:05:00,
2017-12-11 01:07:00,36.5,23.9,30.01,WSW,243,4.0,8.0,60,0.00,,,0.00,0.0,meteobridge,2017-12-11 06:07:00,
2017-12-11 01:12:00,36.7,23.7,30.01,WNW,287,6.9,10.0,59,0.00,,,0.00,0.0,meteobridge,2017-12-11 06:12:00,
2017-12-11 01:22:00,36.7,22.8,30.01,West,259,8.9,11.0,57,0.00,,,0.00,0.0,meteobridge,2017-12-11 06:22:00,
2017-12-11 01:27:00,36.9,23.0,30.01,WSW,245,12.1,13.0,57,0.00,,,0.00,0.0,meteobridge,2017-12-11 06:27:00,
2017-12-11 01:37:00,36.7,22.8,30.00,WSW,241,8.1,11.0,57,0.00,,,0.00,0.0,meteobridge,2017-12-11 06:37:00,
2017-12-11 01:42:00,36.3,23.0,30.01,WSW,237,13.0,15.0,58,0.00,,,0.00,0.0,meteobridge,2017-12-11 06:42:00,
2017-12-11 01:47:00,36.1,23.2,30.01,SW,221,8.9,14.0,59,0.00,,,0.00,0.0,meteobridge,2017-12-11 06:47:00,
2017-12-11 01:57:00,36.1,23.2,30.00,SW,227,11.0,15.0,59,0.00,,,0.00,0.0,meteobridge,2017-12-11 06:57:00,
2017-12-11 02:07:00,36.1,23.2,30.00,WSW,241,2.9,11.0,59,0.00,,,0.00,0.0,meteobridge,2017-12-11 07:07:00,
2017-12-11 02:12:00,36.1,23.2,30.00,WSW,258,10.1,12.0,59,0.00,,,0.00,0.0,meteobridge,2017-12-11 07:12:00,
2017-12-11 02:17:00,36.1,23.2,30.00,WSW,245,8.1,11.0,59,0.00,,,0.00,0.0,meteobridge,2017-12-11 07:17:00,
2017-12-11 02:32:00,36.3,23.4,29.99,WSW,253,4.9,14.0,59,0.00,,,0.00,0.0,meteobridge,2017-12-11 07:32:00,
2017-12-11 02:37:00,36.3,23.4,29.99,WSW,248,2.0,10.0,59,0.00,,,0.00,0.0,meteobridge,2017-12-11 07:37:00,
2017-12-11 02:42:00,36.3,23.4,29.99,West,270,4.0,12.0,59,0.00,,,0.00,0.0,meteobridge,2017-12-11 07:42:00,
2017-12-11 02:47:00,36.3,23.4,29.99,WSW,238,6.9,12.0,59,0.00,,,0.00,0.0,meteobridge,2017-12-11 07:47:00,
2017-12-11 02:52:00,36.1,23.2,29.99,WSW,250,8.1,13.0,59,0.00,,,0.00,0.0,meteobridge,2017-12-11 07:52:00,
2017-12-11 02:57:00,36.1,23.2,29.99,WSW,255,6.9,10.0,59,0.00,,,0.00,0.0,meteobridge,2017-12-11 07:57:00,
2017-12-11 03:07:00,36.1,23.2,29.99,SW,234,8.1,10.0,59,0.00,,,0.00,0.0,meteobridge,2017-12-11 08:07:00,
2017-12-11 03:12:00,36.1,23.5,29.99,West,269,6.0,10.0,60,0.00,,,0.00,0.0,meteobridge,2017-12-11 08:12:00,
2017-12-11 03:17:00,36.3,23.7,29.99,WSW,251,6.0,11.0,60,0.00,,,0.00,0.0,meteobridge,2017-12-11 08:17:00,
2017-12-11 03:22:00,36.3,23.7,29.99,WSW,246,4.9,10.0,60,0.00,,,0.00,0.0,meteobridge,2017-12-11 08:22:00,
2017-12-11 03:27:00,36.3,23.7,29.99,WSW,245,8.1,13.0,60,0.00,,,0.00,0.0,meteobridge,2017-12-11 08:27:00,
2017-12-11 03:37:00,36.3,23.4,29.99,West,260,8.1,11.0,59,0.00,,,0.00,0.0,meteobridge,2017-12-11 08:37:00,
2017-12-11 03:48:00,36.7,23.7,29.99,West,264,6.9,11.0,59,0.00,,,0.00,0.0,meteobridge,2017-12-11 08:48:00,
2017-12-11 03:58:00,36.9,23.0,30.00,NW,304,4.9,18.0,57,0.00,,,0.00,0.0,meteobridge,2017-12-11 08:58:00,
2017-12-11 04:02:00,36.9,23.0,30.00,West,264,15.0,15.0,57,0.00,,,0.00,0.0,meteobridge,2017-12-11 09:02:00,
2017-12-11 04:08:00,36.9,23.0,30.00,West,273,8.1,13.0,57,0.00,,,0.00,0.0,meteobridge,2017-12-11 09:08:00,
2017-12-11 04:13:00,36.7,22.5,30.00,West,281,13.0,19.0,56,0.00,,,0.00,0.0,meteobridge,2017-12-11 09:13:00,
2017-12-11 04:18:00,36.7,22.5,30.00,WSW,250,11.0,11.0,56,0.00,,,0.00,0.0,meteobridge,2017-12-11 09:18:00,
2017-12-11 04:33:00,36.3,22.5,30.00,WNW,303,8.9,11.0,57,0.00,,,0.00,0.0,meteobridge,2017-12-11 09:33:00,
2017-12-11 04:38:00,36.1,22.5,30.01,WSW,255,10.1,16.0,57,0.00,,,0.00,0.0,meteobridge,2017-12-11 09:38:00,
2017-12-11 04:43:00,36.1,23.2,30.01,West,268,6.9,8.0,59,0.00,,,0.00,0.0,meteobridge,2017-12-11 09:43:00,
2017-12-11 04:46:00,36.1,23.2,30.01,WNW,290,10.1,12.0,59,0.00,,,0.00,0.0,meteobridge,2017-12-11 09:46:00,
2017-12-11 04:51:00,36.0,23.0,30.01,West,262,19.0,20.0,59,0.00,,,0.00,0.0,meteobridge,2017-12-11 09:51:00,
2017-12-11 04:56:00,35.4,23.0,30.01,WNW,291,8.9,15.0,60,0.00,,,0.00,0.0,meteobridge,2017-12-11 09:56:00,
2017-12-11 05:01:00,35.4,23.4,30.01,West,269,12.1,16.0,61,0.00,,,0.00,0.0,meteobridge,2017-12-11 10:01:00,
2017-12-11 05:06:00,35.2,23.5,30.01,West,263,10.1,13.0,62,0.00,,,0.00,0.0,meteobridge,2017-12-11 10:06:00,
2017-12-11 05:11:00,35.2,23.5,30.01,WSW,248,4.9,11.0,62,0.00,,,0.00,0.0,meteobridge,2017-12-11 10:11:00,
2017-12-11 05:16:00,35.2,23.5,30.01,WSW,250,8.9,13.0,62,0.00,,,0.00,0.0,meteobridge,2017-12-11 10:16:00,
2017-12-11 05:21:00,35.2,23.5,30.01,WSW,252,13.0,14.0,62,0.00,,,0.00,0.0,meteobridge,2017-12-11 10:21:00,
2017-12-11 05:26:00,35.1,23.7,30.01,WNW,285,6.0,12.0,63,0.00,,,0.00,0.0,meteobridge,2017-12-11 10:26:00,
2017-12-11 05:31:00,35.1,23.7,30.01,WSW,246,13.0,16.0,63,0.00,,,0.00,0.0,meteobridge,2017-12-11 10:31:00,
2017-12-11 05:36:00,34.9,23.5,30.01,WSW,255,4.9,13.0,63,0.00,,,0.00,0.0,meteobridge,2017-12-11 10:36:00,
2017-12-11 05:41:00,34.9,23.9,30.02,West,274,6.0,16.0,64,0.00,,,0.00,0.0,meteobridge,2017-12-11 10:41:00,
2017-12-11 05:46:00,34.9,24.3,30.02,WNW,282,8.1,11.0,65,0.00,,,0.00,0.0,meteobridge,2017-12-11 10:46:00,
2017-12-11 05:51:00,34.9,24.3,30.02,WSW,255,6.9,9.0,65,0.00,,,0.00,0.0,meteobridge,2017-12-11 10:51:00,
2017-12-11 05:56:00,35.1,24.4,30.02,WSW,254,6.0,11.0,65,0.00,,,0.00,0.0,meteobridge,2017-12-11 10:56:00,
2017-12-11 06:01:00,35.1,24.8,30.02,WSW,252,6.0,10.0,66,0.00,,,0.00,0.0,meteobridge,2017-12-11 11:01:00,
2017-12-11 06:06:00,34.9,25.0,30.02,West,259,8.1,11.0,67,0.00,,,0.00,0.0,meteobridge,2017-12-11 11:06:00,
2017-12-11 06:12:00,34.7,25.2,30.02,WSW,256,6.9,9.0,68,0.00,,,0.00,0.0,meteobridge,2017-12-11 11:12:00,
2017-12-11 06:17:00,34.5,25.0,30.01,SW,223,10.1,11.0,68,0.00,,,0.00,0.0,meteobridge,2017-12-11 11:17:00,
2017-12-11 06:22:00,34.5,25.3,30.02,SW,235,6.9,10.0,69,0.00,,,0.00,0.0,meteobridge,2017-12-11 11:22:00,
2017-12-11 06:27:00,34.3,25.2,30.02,SW,231,6.9,12.0,69,0.00,,,0.00,0.0,meteobridge,2017-12-11 11:27:00,
2017-12-11 06:32:00,34.3,25.5,30.02,WSW,258,6.9,10.0,70,0.00,,,0.00,0.0,meteobridge,2017-12-11 11:32:00,
2017-12-11 06:37:00,34.3,25.5,30.03,WNW,282,4.9,7.0,70,0.00,,,0.00,0.0,meteobridge,2017-12-11 11:37:00,
2017-12-11 06:42:00,34.3,25.9,30.03,West,264,6.0,10.0,71,0.00,,,0.00,0.0,meteobridge,2017-12-11 11:42:00,
2017-12-11 06:47:00,34.3,25.9,30.03,WSW,247,6.9,10.0,71,0.00,,,0.00,0.0,meteobridge,2017-12-11 11:47:00,
2017-12-11 06:52:00,34.3,26.2,30.02,WSW,248,10.1,12.0,72,0.00,,,0.00,0.0,meteobridge,2017-12-11 11:52:00,
2017-12-11 06:55:00,34.3,26.2,30.02,WSW,252,8.9,11.0,72,0.00,,,0.00,0.0,meteobridge,2017-12-11 11:55:00,
2017-12-11 07:00:00,34.2,26.1,30.02,SSW,212,6.0,14.0,72,0.00,,,0.00,0.0,meteobridge,2017-12-11 12:00:00,
2017-12-11 07:05:00,34.2,26.4,30.02,West,259,6.9,14.0,73,0.00,,,0.00,0.0,meteobridge,2017-12-11 12:05:00,
2017-12-11 07:10:00,34.2,26.4,30.02,WSW,256,8.1,10.0,73,0.00,,,0.00,0.0,meteobridge,2017-12-11 12:10:00,
2017-12-11 07:15:00,34.2,26.8,30.02,WSW,251,8.9,11.0,74,0.00,,,0.00,0.0,meteobridge,2017-12-11 12:15:00,
2017-12-11 07:20:00,34.2,26.8,30.02,WSW,251,10.1,11.0,74,0.00,,,0.00,7.0,meteobridge,2017-12-11 12:20:00,
2017-12-11 07:25:00,34.0,27.0,30.02,West,264,6.9,11.0,75,0.00,,,0.00,12.0,meteobridge,2017-12-11 12:25:00,
2017-12-11 07:30:00,34.0,27.0,30.03,SW,230,10.1,12.0,75,0.00,,,0.00,14.0,meteobridge,2017-12-11 12:30:00,
2017-12-11 07:35:00,34.0,27.0,30.03,SW,234,8.1,12.0,75,0.00,,,0.00,18.0,meteobridge,2017-12-11 12:35:00,
2017-12-11 07:45:00,34.0,27.0,30.03,WSW,247,6.9,15.0,75,0.00,,,0.00,26.0,meteobridge,2017-12-11 12:45:00,
2017-12-11 07:50:00,34.2,27.1,30.03,WSW,237,6.0,11.0,75,0.00,,,0.00,26.0,meteobridge,2017-12-11 12:50:00,
2017-12-11 07:55:00,34.2,27.1,30.03,WSW,257,10.1,16.0,75,0.00,,,0.00,21.0,meteobridge,2017-12-11 12:55:00,
2017-12-11 08:00:00,34.2,27.1,30.03,West,260,6.9,14.0,75,0.00,,,0.00,18.0,meteobridge,2017-12-11 13:00:00,
2017-12-11 08:05:00,34.2,27.1,30.04,WSW,256,8.9,14.0,75,0.00,,,0.00,18.0,meteobridge,2017-12-11 13:05:00,
2017-12-11 08:11:00,34.2,27.1,30.03,SW,221,6.9,9.0,75,0.00,,,0.00,21.0,meteobridge,2017-12-11 13:11:00,
2017-12-11 08:16:00,34.2,27.1,30.04,WSW,240,8.1,10.0,75,0.00,,,0.00,33.0,meteobridge,2017-12-11 13:16:00,
2017-12-11 08:21:00,34.2,27.1,30.04,WSW,250,8.1,13.0,75,0.00,,,0.00,37.0,meteobridge,2017-12-11 13:21:00,
2017-12-11 08:26:00,34.0,27.1,30.04,SW,217,4.0,12.0,76,0.00,,,0.00,42.0,meteobridge,2017-12-11 13:26:00,
2017-12-11 08:36:00,34.3,27.5,30.04,WSW,244,6.0,8.0,76,0.00,,,0.00,160.0,meteobridge,2017-12-11 13:36:00,
2017-12-11 08:41:00,34.3,27.5,30.04,WSW,242,6.9,9.0,76,0.00,,,0.00,200.0,meteobridge,2017-12-11 13:41:00,
2017-12-11 08:46:00,34.5,27.7,30.04,West,273,4.0,8.0,76,0.00,,,0.00,209.0,meteobridge,2017-12-11 13:46:00,
2017-12-11 08:51:00,34.9,28.0,30.04,WSW,255,8.1,8.1,76,0.00,,,0.00,221.0,meteobridge,2017-12-11 13:51:00,
2017-12-11 08:56:00,35.1,27.9,30.04,West,271,6.9,13.0,75,0.00,,,0.00,229.0,meteobridge,2017-12-11 13:56:00,
2017-12-11 09:01:00,35.2,27.9,30.04,WNW,285,2.0,11.0,74,0.00,,,0.00,239.0,meteobridge,2017-12-11 14:01:00,
2017-12-11 09:06:00,35.6,28.2,30.04,WSW,246,2.0,7.0,74,0.00,,,0.00,253.0,meteobridge,2017-12-11 14:06:00,
2017-12-11 09:11:00,36.1,27.7,30.04,West,260,6.9,12.0,71,0.00,,,0.00,264.0,meteobridge,2017-12-11 14:11:00,
2017-12-11 09:16:00,36.1,27.3,30.04,West,281,6.0,14.0,70,0.00,,,0.00,265.0,meteobridge,2017-12-11 14:16:00,
2017-12-11 09:21:00,36.3,27.5,30.04,WNW,287,10.1,12.0,70,0.00,,,0.00,272.0,meteobridge,2017-12-11 14:21:00,
2017-12-11 09:26:00,36.5,27.0,30.04,WNW,295,12.1,12.1,68,0.00,,,0.00,297.0,meteobridge,2017-12-11 14:26:00,
2017-12-11 09:31:00,36.3,26.4,30.04,West,277,13.0,13.0,67,0.00,,,0.00,304.0,meteobridge,2017-12-11 14:31:00,
2017-12-11 09:36:00,36.7,26.4,30.04,West,281,8.1,16.0,66,0.00,,,0.00,320.0,meteobridge,2017-12-11 14:36:00,
2017-12-11 09:41:00,36.9,26.2,30.04,WSW,244,8.1,16.0,65,0.00,,,0.00,325.0,meteobridge,2017-12-11 14:41:00,
2017-12-11 09:46:00,36.9,25.9,30.04,West,273,11.0,16.0,64,0.00,,,0.00,334.0,meteobridge,2017-12-11 14:46:00,
2017-12-11 09:56:00,37.4,25.5,30.04,WNW,293,6.0,11.0,62,0.00,,,0.00,348.0,meteobridge,2017-12-11 14:56:00,
2017-12-11 10:01:00,37.8,26.2,30.04,WNW,303,2.0,7.0,63,0.00,,,0.00,359.0,meteobridge,2017-12-11 15:01:00,
2017-12-11 10:06:00,37.6,25.3,30.04,WNW,286,8.9,14.0,61,0.00,,,0.00,369.0,meteobridge,2017-12-11 15:06:00,
2017-12-11 10:11:00,37.6,25.7,30.04,WNW,287,12.1,13.0,62,0.00,,,0.00,371.0,meteobridge,2017-12-11 15:11:00,
2017-12-11 10:16:00,37.0,24.4,30.04,WNW,283,12.1,13.0,60,0.00,,,0.00,376.0,meteobridge,2017-12-11 15:16:00,
2017-12-11 10:21:00,37.2,24.6,30.04,NW,313,8.1,15.0,60,0.00,,,0.00,388.0,meteobridge,2017-12-11 15:21:00,
2017-12-11 10:26:00,37.2,24.6,30.04,NW,319,12.1,17.0,60,0.00,,,0.00,388.0,meteobridge,2017-12-11 15:26:00,
2017-12-11 10:31:00,37.2,24.6,30.04,West,270,4.9,15.0,60,0.00,,,0.00,383.0,meteobridge,2017-12-11 15:31:00,
2017-12-11 10:36:00,37.6,25.0,30.04,NW,315,8.9,12.0,60,0.00,,,0.00,403.0,meteobridge,2017-12-11 15:36:00,
2017-12-11 10:41:00,37.9,25.0,30.04,WNW,293,4.0,16.0,59,0.00,,,0.00,410.0,meteobridge,2017-12-11 15:41:00,
2017-12-11 10:46:00,37.8,24.3,30.04,WNW,300,12.1,17.0,58,0.00,,,0.00,383.0,meteobridge,2017-12-11 15:46:00,
2017-12-11 10:51:00,37.9,24.4,30.04,NW,326,11.0,14.0,58,0.00,,,0.00,413.0,meteobridge,2017-12-11 15:51:00,
2017-12-11 10:56:00,38.3,24.8,30.04,West,275,8.1,13.0,58,0.00,,,0.00,418.0,meteobridge,2017-12-11 15:56:00,
2017-12-11 11:01:00,37.9,23.7,30.04,NNW,333,10.1,15.0,56,0.00,,,0.00,427.0,meteobridge,2017-12-11 16:01:00,
2017-12-11 11:06:00,37.8,23.9,30.04,WNW,288,6.9,13.0,57,0.00,,,0.00,424.0,meteobridge,2017-12-11 16:06:00,
2017-12-11 11:11:00,38.1,24.3,30.04,NW,306,8.1,11.0,57,0.00,,,0.00,432.0,meteobridge,2017-12-11 16:11:00,
2017-12-11 11:16:00,38.3,24.4,30.04,NW,320,6.0,8.0,57,0.00,,,0.00,418.0,meteobridge,2017-12-11 16:16:00,
2017-12-11 11:21:00,38.5,24.1,30.04,NW,308,8.1,11.0,56,0.00,,,0.00,436.0,meteobridge,2017-12-11 16:21:00,
2017-12-11 11:26:00,38.1,23.9,30.04,WNW,298,10.1,11.0,56,0.00,,,0.00,403.0,meteobridge,2017-12-11 16:26:00,
2017-12-11 11:31:00,38.1,23.9,30.03,WNW,287,6.0,9.0,56,0.00,,,0.00,350.0,meteobridge,2017-12-11 16:31:00,
2017-12-11 11:36:00,38.7,23.9,30.03,NNW,335,11.0,12.0,55,0.00,,,0.00,445.0,meteobridge,2017-12-11 16:36:00,
2017-12-11 11:41:00,38.5,23.7,30.02,NW,326,8.1,10.0,55,0.00,,,0.00,431.0,meteobridge,2017-12-11 16:41:00,
2017-12-11 11:46:00,38.8,23.5,30.02,NNW,337,4.9,8.0,54,0.00,,,0.00,441.0,meteobridge,2017-12-11 16:46:00,
2017-12-11 11:51:00,39.4,23.7,30.02,NNW,339,6.0,12.0,53,0.00,,,0.00,450.0,meteobridge,2017-12-11 16:51:00,
2017-12-11 11:56:00,39.4,23.2,30.01,WNW,301,6.9,10.0,52,0.00,,,0.00,415.0,meteobridge,2017-12-11 16:56:00,
2017-12-11 12:01:00,39.6,23.0,30.01,West,269,6.9,12.0,51,0.00,,,0.00,432.0,meteobridge,2017-12-11 17:01:00,
2017-12-11 12:07:00,39.9,23.7,30.01,WNW,294,4.9,7.0,52,0.00,,,0.00,431.0,meteobridge,2017-12-11 17:07:00,
2017-12-11 12:12:00,39.6,23.0,30.01,NNW,331,6.0,11.0,51,0.00,,,0.00,436.0,meteobridge,2017-12-11 17:12:00,
2017-12-11 12:17:00,39.9,23.2,30.01,NW,304,8.1,9.0,51,0.00,,,0.00,418.0,meteobridge,2017-12-11 17:17:00,
2017-12-11 12:22:00,39.7,22.6,30.01,NW,322,8.1,10.0,50,0.00,,,0.00,425.0,meteobridge,2017-12-11 17:22:00,
2017-12-11 12:27:00,39.9,22.8,30.00,North,354,2.0,7.0,50,0.00,,,0.00,424.0,meteobridge,2017-12-11 17:27:00,
2017-12-11 12:32:00,39.9,23.2,30.00,WSW,247,6.9,10.0,51,0.00,,,0.00,424.0,meteobridge,2017-12-11 17:32:00,
2017-12-11 12:37:00,39.7,23.2,30.00,NW,322,4.0,15.0,51,0.00,,,0.00,418.0,meteobridge,2017-12-11 17:37:00,
2017-12-11 12:42:00,39.9,22.8,30.00,SSW,212,4.9,12.0,50,0.00,,,0.00,415.0,meteobridge,2017-12-11 17:42:00,
2017-12-11 12:47:00,39.9,21.7,30.00,NW,319,2.0,10.0,48,0.00,,,0.00,406.0,meteobridge,2017-12-11 17:47:00,
2017-12-11 12:52:00,39.7,21.7,29.99,NW,317,8.1,10.0,48,0.00,,,0.00,408.0,meteobridge,2017-12-11 17:52:00,
2017-12-11 12:57:00,40.3,22.6,29.99,NW,314,6.9,8.0,49,0.00,,,0.00,401.0,meteobridge,2017-12-11 17:57:00,
2017-12-11 13:02:00,40.1,21.9,29.99,West,260,2.0,10.0,48,0.00,,,0.00,383.0,meteobridge,2017-12-11 18:02:00,
2017-12-11 13:07:00,40.3,22.1,29.98,West,279,4.0,11.0,48,0.00,,,0.00,390.0,meteobridge,2017-12-11 18:07:00,
2017-12-11 13:12:00,40.3,21.2,29.98,NNW,333,8.1,11.0,46,0.00,,,0.00,380.0,meteobridge,2017-12-11 18:12:00,
2017-12-11 13:17:00,39.9,21.7,29.98,North,1,6.9,11.0,48,0.00,,,0.00,366.0,meteobridge,2017-12-11 18:17:00,
2017-12-11 13:22:00,40.6,22.5,29.98,NNW,344,8.1,11.0,48,0.00,,,0.00,362.0,meteobridge,2017-12-11 18:22:00,
2017-12-11 13:27:00,40.6,22.5,29.99,WNW,295,2.0,6.0,48,0.00,,,0.00,359.0,meteobridge,2017-12-11 18:27:00,
2017-12-11 13:32:00,40.8,22.6,29.99,West,275,4.0,11.0,48,0.00,,,0.00,376.0,meteobridge,2017-12-11 18:32:00,
2017-12-11 13:37:00,40.5,21.7,29.99,WNW,300,4.0,9.0,47,0.00,,,0.00,371.0,meteobridge,2017-12-11 18:37:00,
2017-12-11 13:42:00,40.6,21.6,29.99,West,278,4.0,11.0,46,0.00,,,0.00,318.0,meteobridge,2017-12-11 18:42:00,
2017-12-11 13:47:00,40.8,21.6,29.99,NNW,337,4.9,12.0,46,0.00,,,0.00,325.0,meteobridge,2017-12-11 18:47:00,
2017-12-11 13:53:00,41.0,21.7,29.99,West,280,6.9,9.0,46,0.00,,,0.00,313.0,meteobridge,2017-12-11 18:53:00,
2017-12-11 13:58:00,41.4,22.1,29.99,North,349,8.1,11.0,46,0.00,,,0.00,309.0,meteobridge,2017-12-11 18:58:00,
2017-12-11 14:03:00,40.8,21.6,29.99,North,349,4.9,9.0,46,0.00,,,0.00,262.0,meteobridge,2017-12-11 19:03:00,
2017-12-11 14:08:00,40.5,20.8,29.99,NW,312,6.9,9.0,45,0.00,,,0.00,283.0,meteobridge,2017-12-11 19:08:00,
2017-12-11 14:13:00,40.8,20.7,29.99,WNW,300,8.9,13.0,44,0.00,,,0.00,276.0,meteobridge,2017-12-11 19:13:00,
2017-12-11 14:18:00,40.6,21.0,29.99,NW,312,8.9,12.0,45,0.00,,,0.00,251.0,meteobridge,2017-12-11 19:18:00,
2017-12-11 14:24:00,40.6,20.5,29.99,NNW,335,4.9,13.0,44,0.00,,,0.00,178.0,meteobridge,2017-12-11 19:24:00,
2017-12-11 14:29:00,40.8,20.7,29.99,WNW,282,4.9,10.0,44,0.00,,,0.00,127.0,meteobridge,2017-12-11 19:29:00,
2017-12-11 14:34:00,40.6,20.5,30.00,NW,306,8.1,11.0,44,0.00,,,0.00,134.0,meteobridge,2017-12-11 19:34:00,
2017-12-11 14:39:00,41.0,21.2,30.00,NW,307,6.9,7.0,45,0.00,,,0.00,250.0,meteobridge,2017-12-11 19:39:00,
2017-12-11 14:44:00,41.2,20.8,30.00,NW,307,11.0,17.0,44,0.00,,,0.00,192.0,meteobridge,2017-12-11 19:44:00,
2017-12-11 14:49:00,41.5,21.2,30.00,WNW,296,11.0,12.0,44,0.00,,,0.00,91.0,meteobridge,2017-12-11 19:49:00,
2017-12-11 14:54:00,41.2,20.8,30.00,NW,310,4.0,11.0,44,0.00,,,0.00,95.0,meteobridge,2017-12-11 19:54:00,
2017-12-11 14:59:00,41.2,21.4,30.00,NNW,340,12.1,12.1,45,0.00,,,0.00,151.0,meteobridge,2017-12-11 19:59:00,
2017-12-11 15:04:00,40.8,21.2,30.00,West,270,4.9,13.0,45,0.00,,,0.00,107.0,meteobridge,2017-12-11 20:04:00,
2017-12-11 15:09:00,40.8,21.2,30.00,NNW,335,4.9,10.0,45,0.00,,,0.00,109.0,meteobridge,2017-12-11 20:09:00,
2017-12-11 15:14:00,40.5,20.8,30.00,WNW,286,6.0,7.0,45,0.00,,,0.00,86.0,meteobridge,2017-12-11 20:14:00,
2017-12-11 15:19:00,41.2,21.9,30.00,West,266,2.9,4.0,46,0.00,,,0.00,65.0,meteobridge,2017-12-11 20:19:00,
2017-12-11 15:24:00,41.2,21.4,30.00,WSW,243,2.9,9.0,45,0.00,,,0.00,46.0,meteobridge,2017-12-11 20:24:00,
2017-12-11 15:30:00,41.2,21.9,30.00,WNW,282,2.0,11.0,46,0.00,,,0.00,40.0,meteobridge,2017-12-11 20:30:00,
2017-12-11 15:35:00,40.6,21.0,30.00,NW,320,8.9,9.0,45,0.00,,,0.00,39.0,meteobridge,2017-12-11 20:35:00,
2017-12-11 15:40:00,40.3,20.7,30.00,NW,311,8.1,11.0,45,0.00,,,0.00,35.0,meteobridge,2017-12-11 20:40:00,
2017-12-11 15:45:00,40.3,21.2,29.99,NW,316,8.1,11.0,46,0.00,,,0.00,28.0,meteobridge,2017-12-11 20:45:00,
2017-12-11 15:50:00,40.3,21.7,30.00,NNW,327,6.9,10.0,47,0.00,,,0.00,25.0,meteobridge,2017-12-11 20:50:00,
2017-12-11 15:55:00,40.3,21.7,29.99,NNW,344,2.9,10.0,47,0.00,,,0.00,25.0,meteobridge,2017-12-11 20:55:00,